Terminal Aerodrome Forecast
Issued by NWS Sterling, VA

Home | Current Version | Previous Version | Text Only | Print | Product List | Glossary On
Versions: 1 2 3 4 5 6 7 8 9 10 11 12 13 14 15 16 17 18 19 20 21
000
FTUS41 KLWX 312000 AAA
TAFIAD
TAF AMD
KIAD 312039Z 3121/0124 31010KT P6SM FEW250
     FM010100 VRB03KT P6SM FEW250
     FM011100 VRB03KT P6SM OVC050=

USA.gov is the U.S. government's official web portal to all federal, state and local government web resources and services.